Regional Weather Roundup
Issued by NWS

Home | Current Version | Previous Version | Graphics & Text | Print | Product List | Glossary On
Versions: 1 2 3 4 5 6 7 8 9 10 11 12 13 14 15 16 17 18 19 20 21 22 23 24 25 26 27 28 29 30 31 32 33 34 35 36 37 38 39 40 41 42 43 44 45 46 47 48 49 50
000
ASUS45 KTFX 301204
RWRMT
MONTANA HOURLY WEATHER ROUNDUP
NATIONAL WEATHER SERVICE GREAT FALLS MT
604 AM MDT THU OCT 30 2014

NOTE: "FAIR" INDICATES FEW OR NO CLOUDS BELOW 12000 FEET WITH NO
SIGNIFICANT WEATHER AND/OR OBSTRUCTIONS TO VISIBILITY.

* THESE STATIONS ARE NOT UNDER NWS QUALITY CONTROL. THEY DO NOT
   REPORT WEATHER SUCH AS PRECIPITATION OR FOG.

MTZ001>007-043-301300-
WEST OF THE DIVIDE
CITY           SKY/WX    TMP DP  RH WIND       PRES   REMARKS
KALISPELL      FOG       41  39  93 NE3       30.25S VSB M1/4
MISSOULA       CLOUDY    37  37 100 CALM      30.27S
BUTTE          CLOUDY    32  28  85 CALM      30.28F
MULLAN PASS    FOG       34  34 100 SE9       30.20F VSB 1/2  WCI  27
* DEER LODGE   CLOUDY    34  28  79 N/A        N/A
* ESSEX        N/A       38  38 100 NE1        N/A
* HAMILTON APT MOCLDY    41  36  82 S5         N/A
* LIBBY APT    PTCLDY    43  41  93 N/A        N/A
* LINCOLN      N/A       28  27  96 N/A        N/A
* LOOKOUT PASS N/A       38  38 100 S8G13      N/A   WCI  32
* POLSON       N/A       38  38 100 N/A        N/A
* RONAN APT    MOCLDY    30  28  92 N/A        N/A
* SEELEY LAKE  N/A       30  29  96 N/A        N/A
* THOMP F APT  MOCLDY    40  27  60 E1         N/A
* YAAK HILL    N/A       42  40  93 N/A        N/A
$$

MTZ008-052>055-301300-
SOUTHWEST MONTANA
CITY           SKY/WX    TMP DP  RH WIND       PRES   REMARKS
BOZEMAN        CLOUDY    34  27  76 CALM      30.29S
DILLON         CLOUDY    37  28  70 S6        30.27S WCI  32
W YELLOWSTONE  CLOUDY    23  21  92 CALM      30.35R
* ENNIS APT    MOCLDY    36  27  70 N3         N/A
* THREE FORKS  MOCLDY    30  30 100 N/A        N/A
* BOULDER HILL N/A       34  24  67 S8         N/A   WCI  27
* RAYNOLDS PAS N/A       30  15  54 S6         N/A   WCI  24
* WHITEHALL    N/A       33  28  82 N/A        N/A
* WISE RIVER   N/A       29  27  92 W3         N/A
$$

MTZ009>010-012-014-046-048-049-054-301300-
EAST SLOPES AND CENTRAL MONTANA
CITY           SKY/WX    TMP DP  RH WIND       PRES   REMARKS
CUT BANK       CLEAR     32  28  85 W6        30.21S WCI  26
GREAT FALLS    CLEAR     34  28  79 S8        30.23S WCI  27
HELENA         MOCLDY    37  32  82 CALM      30.27S
MALMSTROM AFB  CLEAR     28  28 100 S6        30.25S WCI  21
* CONRAD       CLEAR     25  21  85 N/A        N/A
* DEARBORN     N/A       32  30  92 S2         N/A
* EAST GLACIER N/A       38  33  82 W14G20     N/A   WCI  30
* MONARCH      N/A       32  24  72 S10        N/A   WCI  24
* ROGERS PASS  N/A       38  33  82 NW4        N/A
* SAINT MARY   N/A       42  30  63 S6G14      N/A
* SWEET GRASS  N/A       39  31  73 E1G7       N/A
$$

MTZ011-013-016-021-035-040-045-047-050-051-301300-
NORTH CENTRAL MONTANA
CITY           SKY/WX    TMP DP  RH WIND       PRES   REMARKS
HAVRE          CLEAR     34  30  85 W5        30.25R WCI  29
LEWISTOWN      CLEAR     32  27  82 SE6       30.27R WCI  26
* N BAR RANCH  CLEAR     34  27  76 CALM      30.27S
* CHESTER      N/A       30  27  89 N/A        N/A
* DENTON       N/A       34  28  79 S6         N/A   WCI  29
* GEYSER       N/A       35  28  76 SW5        N/A   WCI  31
* JUDITH GAP   N/A       36  27  70 NE8        N/A   WCI  30
* LOMA         N/A       35  31  85 W6         N/A   WCI  30
$$

MTZ017>020-022>027-061-062-301300-
NORTHEAST MONTANA
CITY           SKY/WX    TMP DP  RH WIND       PRES   REMARKS
GLASGOW        CLOUDY    34  30  85 N8        30.28R WCI  27
GLENDIVE       CLOUDY    34  30  85 N7        30.28R WCI  28
JORDAN         CLEAR     25  21  85 CALM      30.25R
SIDNEY         CLOUDY    37  32  82 N10       30.29R WCI  30
WOLF POINT     CLOUDY    37  32  82 N5        30.30R WCI  33
* BEAVER HILL  N/A       33  32  96 N/A        N/A
* CIRCLE       N/A       30  28  92 N/A        N/A
* LINDSAY DVD  N/A       32  32 100 VRB4       N/A
* NAVAJO       N/A       31  30  96 VRB8       N/A   WCI  24
* PLENTYWOOD A N/A       26 N/A N/A N/A        N/A
* POPLAR APT   N/A       37  34  89 N/A        N/A
$$

MTZ028>042-056>058-301300-
SOUTHCENTRAL AND SOUTHEAST MONTANA
CITY           SKY/WX    TMP DP  RH WIND       PRES   REMARKS
BAKER          MOCLDY    30  28  92 NW7       30.24R WCI  23
BILLINGS       CLEAR     36  27  70 SW10      30.27R WCI  29
LIVINGSTON     MOCLDY    32  27  82 NW7       30.28S WCI  25
MILES CITY     CLEAR     30  28  92 NW7       30.25R WCI  23
* FORSYTH APT  CLEAR     39  30  70 SW6        N/A   WCI  35
* LAUREL APT   PTCLDY    36  25  64 N/A        N/A
* ROUNDUP APT  CLEAR     34  25  70 N/A        N/A
* ALZADA       N/A       34  28  79 NW6        N/A   WCI  29
* HYSHAM       N/A       38  28  67 W4         N/A
* LAME DEER    N/A       40  29  65 W9         N/A   WCI  34
* REED POINT   N/A       28  27  96 N/A        N/A
* ROSCOE HILL  N/A       42  21  43 SE6        N/A
$$

REGIONAL REPORTS...DAKOTAS
CITY           SKY/WX    TMP DP  RH WIND       PRES   REMARKS
WILLISTON      CLOUDY    37  32  82 NW9       30.27R WCI  30
DICKINSON      FOG       34  32  92 NW12      30.21R WCI  25
BEACH          N/A       32  32 100 N12       30.25R WCI  23
CROSBY         CLOUDY    36  36 100 N13       30.27R WCI  27
TIOGA          CLOUDY    32  32 100 NE7       30.27R WCI  25
BISMARCK       PTCLDY    34  32  92 N10       30.18R WCI  26
GRAND FORKS    MOCLDY    30  28  92 NW10      30.14R WCI  21
FARGO          FOG       39  37  93 NE6       30.06R VSB 2    WCI  35
BUFFALO SD     CLEAR     37  32  82 NW12      30.15R WCI  29
RAPID CITY     CLEAR     36  28  73 N9        30.21R WCI  29
$$

REGIONAL REPORTS...WYOMING/IDAHO/WASHINGTON
CITY           SKY/WX    TMP DP  RH WIND       PRES   REMARKS
GILLETTE       CLEAR     37  27  67 W13       30.28R WCI  29
SHERIDAN       CLEAR     34  25  70 CALM      30.29R
CODY           PTCLDY    36  27  70 CALM      30.30R
YELLOWSTONE LA MOCLDY    25  23  92 CALM      30.38S
SALMON         CLOUDY    39  34  82 CALM      30.27S
MULLAN PASS    FOG       34  34 100 SE9       30.20S VSB 1/2  WCI  27
SAND POINT     CLOUDY    43  43 100 NE7       30.21S
SPOKANE        FOG       45  45 100 NE9       30.14S VSB 3
$$

REGIONAL REPORTS...ALBERTA
CITY           SKY/WX    TMP DP  RH WIND       PRES   REMARKS
MEDICINE HAT   LGT SNOW  32  32 100 NE10      30.26S VSB 3/4  WCI  24
$$

REGIONAL REPORTS...SASKATCHEWAN
CITY           SKY/WX    TMP DP  RH WIND       PRES   REMARKS
SWIFT CURRENT  FOG       30  30 100 E8        30.28S WCI  22

$$




USA.gov is the U.S. government's official web portal to all federal, state and local government web resources and services.